Simultaneous Nadir Overpasses (SNOs) Predictions

Prediction of SNOs between LANDSAT-8 and METOP-B Satellite Orbit:

Table of predicted SNOs for the next 14.0 days since TLE Epoch: 11/11/2017
Index Date (LANDSAT-8) Time (LANDSAT-8) Lat,Lon (LANDSAT-8) SZA (LANDSAT-8 ) Date (METOP-B) Time (METOP-B) Lat,Lon (METOP-B) SZA (METOP-B ) Distance(km) Time Diff (sec)
1 11/12/2017 10:24:43 81.12, 63.67 101.27 11/12/2017 10:24:13 81.12, 63.63 101.25 0.83 30
2 11/12/2017 11:14:09 -81.14,-128.40 78.69 11/12/2017 11:14:52 -81.14,-128.49 78.68 1.52 43
3 11/15/2017 05:58:57 81.13, 130.24 102.01 11/15/2017 05:58:35 81.12, 130.09 101.98 2.75 22
4 11/15/2017 06:48:23 -81.15, -61.81 77.94 11/15/2017 06:49:13 -81.15, -61.63 77.90 3.07 50
5 11/18/2017 01:33:11 81.14,-163.23 102.69 11/18/2017 01:32:56 81.14,-163.09 102.70 2.46 15
6 11/18/2017 02:22:37 -81.16, 4.74 77.25 11/18/2017 02:23:35 -81.16, 4.84 77.22 1.60 58
7 11/20/2017 21:07:25 81.14, -96.75 103.33 11/20/2017 21:07:18 81.14, -96.67 103.33 1.46 7
8 11/20/2017 21:56:50 -81.16, 71.25 76.62 11/20/2017 21:57:56 -81.16, 71.28 76.59 0.75 66
9 11/23/2017 15:52:13 -81.11, 161.68 76.17 11/23/2017 15:51:00 -81.11, 161.71 76.19 0.47 73
10 11/23/2017 16:41:38 81.14, -30.32 103.90 11/23/2017 16:41:39 81.14, -30.27 103.91 0.87 1




NCC Satellite Simultaneous Nadir Overpasses (SNOs) Prediction Service
